TIME,DELAY(SENSOR),PRES,OXYGEN,RAWTEMP,T(OPTODE),TCPHASE,FLUOR,BETA(BETA700),BETA(BETA412),BETA(BETA440),CDOM,C(CSC),ED(ED412.20),ED(ED444.00),ED(ED489.60),ED(ED554.30),LU(LU412.10),LU(LU443.90),LU(LU489.70),LU(LU554.70),COMP,TILTX,TILTY,CHECK
1349753047,5810,886.3599853515625000,35.1222381591796900,556.5812988281250000,4.5917987823486330,56.2288513183593750,55,101,101,78,81,15556,0,0,0,0,2147126080,2147778377,2147570980,2147570102,1063,3,13,19093
1349756643,5809,960.6099853515625000,39.9574203491210940,564.1779174804688000,4.3563418388366700,55.5588417053222660,55,98,99,78,82,15556,0,0,0,0,2147123465,2147776173,2147572352,2147570925,3037,3,13,5459
1349760243,5809,971.6599731445312000,40.7046585083007800,564.8883056640625000,4.3342990875244140,55.4530487060546900,56,98,101,78,83,15549,0,0,0,0,2147125732,2147782582,2147570788,2147567634,223,3,13,43503
1349763843,5811,979.7700195312500000,40.7821502685546900,564.9959716796875000,4.3309559822082520,55.4458198547363300,55,96,100,79,82,15555,0,0,0,0,2147125193,2147773577,2147572690,2147568420,3585,3,13,35982
1349767443,5808,987.3099975585938000,39.6357498168945300,564.7578125000000000,4.3383479118347170,55.6166381835937500,55,100,101,78,82,15552,0,0,0,0,2147124882,2147780397,2147570048,2147568640,364,3,13,43598
1349771043,5808,989.7800292968750000,39.5065383911132800,564.7744140625000000,4.3378329277038570,55.6347389221191400,55,98,100,78,83,15553,0,0,0,0,2147125019,2147778861,2147572333,2147568813,3234,3,13,15657
1349774643,5809,992.8400268554688000,39.5549888610839840,565.3062744140625000,4.3213272094726560,55.6323204040527340,55,101,102,79,81,15547,0,0,0,0,2147121161,2147777408,2147569216,2147569014,3288,3,13,60130
1349778243,5808,990.8699951171875000,39.4447097778320300,565.2529296875000000,4.3229851722717285,55.6462211608886700,54,100,101,78,82,15548,0,0,0,0,2147126153,2147781632,2147568320,2147568329,3533,3,13,25856
1349781843,5811,990.9199829101562000,39.4272689819335940,565.0906982421875000,4.3280181884765625,55.6463394165039060,56,98,100,78,82,15511,0,0,0,0,2147124982,2147776658,2147569636,2147567195,78,3,13,11164
1349785443,5810,988.8099975585938000,38.8360900878906250,565.1732788085938000,4.3254528045654300,55.7403717041015600,56,98,100,77,83,15548,0,0,0,0,2147123593,2147775524,2147570185,2147567844,3577,3,13,13162
1349789043,5811,1000.2000122070312000,39.4576110839843750,565.2866821289062000,4.3219342231750490,55.6442184448242200,55,98,101,78,82,15548,0,0,0,0,2147122505,2147782016,2147570523,2147570194,3355,3,13,21555
1349792643,5807,995.5499877929688000,39.7064514160156250,565.3491821289062000,4.3199939727783200,55.6125602722168000,55,98,102,78,82,15543,0,0,0,0,2147124525,2147772900,2147569197,2147568676,3398,3,13,4314
1349796243,5811,992.7100219726562000,38.9558982849121100,564.9055175781250000,4.3337650299072270,55.7177581787109400,56,99,100,78,83,15546,0,0,0,0,2147123328,2147772544,2147568512,2147569316,3236,3,13,16811
1349799843,5809,994.8200073242188000,38.2428894042968750,565.0604858398438000,4.3289527893066410,55.8294486999511700,53,99,100,78,83,15541,0,0,0,0,2147124790,2147778569,2147572251,2147570002,266,3,13,60327
1349803443,5812,994.7299804687500000,37.7642898559570300,564.5656738281250000,4.3443088531494140,55.8944396972656250,55,98,100,77,82,15543,0,0,0,0,2147123291,2147772717,2147569453,2147567597,62,3,13,30808
1349807043,5811,988.3400268554688000,37.6891784667968750,564.6497192382812000,4.3417019844055180,55.9111900329589840,55,98,101,78,82,15543,0,0,0,0,2147121234,2147776009,2147569179,2147568283,597,3,13,7861
1349810643,5811,991.3800048828125000,37.6872596740722660,565.1068725585938000,4.3275151252746580,55.9131317138671900,55,98,100,79,83,15541,0,0,0,0,2147122560,2147773842,2147569682,2147565558,80,3,13,25252
1349814243,5810,988.2000122070312000,37.1932411193847660,565.4697875976562000,4.3162522315979000,55.9968910217285160,56,98,100,77,82,15546,0,0,0,0,2147121746,2147774473,2147569289,2147568694,88,3,12,6111
1349817844,5810,988.8200073242188000,37.6840896606445300,565.1052246093750000,4.3275680541992190,55.9139595031738300,56,98,99,78,81,15542,0,0,0,0,2147124086,2147772333,2147568768,2147568640,136,3,13,4892
1349821443,5811,988.7700195312500000,37.6319007873535160,565.1077880859375000,4.3274860382080080,55.9207687377929700,55,98,100,79,82,15541,0,0,0,0,2147124973,2147776667,2147570797,2147568969,23,3,13,53441
1349825043,5811,989.3800048828125000,37.6301193237304700,565.1176757812500000,4.3271808624267580,55.9215888977050800,54,100,100,78,83,15542,0,0,0,0,2147125577,2147775113,2147566281,2147569444,203,3,13,19467
1349828643,5807,991.4500122070312000,37.9089813232421900,565.3101196289062000,4.3212089538574220,55.8796997070312500,55,99,99,78,82,15541,0,0,0,0,2147123428,2147775945,2147571584,2147570011,3398,3,13,19077
1349832244,5812,991.8800048828125000,37.8411293029785160,565.1671142578125000,4.3256468772888180,55.8904304504394500,54,98,102,78,82,15542,0,0,0,0,2147120192,2147778669,2147569234,2147571712,189,3,13,15493
1349835843,5811,992.5499877929688000,37.3720397949218750,565.1936035156250000,4.3248248100280760,55.9630584716796900,55,98,102,78,82,15540,0,0,0,0,2147121216,2147778221,2147576128,2147568603,96,3,13,50414
1349839443,5810,992.3099975585938000,37.7428207397460940,565.2009887695312000,4.3245930671691895,55.9067306518554700,54,98,100,78,83,15542,0,0,0,0,2147123501,2147780297,2147572315,2147569252,141,3,13,733
1349843043,5811,992.6799926757812000,37.5075798034668000,565.0718994140625000,4.3286018371582030,55.9460411071777340,56,98,101,78,84,15535,0,0,0,0,2147125467,2147774217,2147574336,2147568941,23,3,13,33031
1349846643,5811,989.5599975585938000,37.6230812072753900,566.5145874023438000,4.2838211059570310,55.9407005310058600,56,98,101,77,82,15543,0,0,0,0,2147126957,2147775707,2147573622,2147568576,48,3,13,29274
1349850243,5809,990.2800292968750000,38.8404502868652340,567.0745239257812000,4.2664380073547360,55.7570610046386700,55,96,100,77,83,15542,0,0,0,0,2147123328,2147777115,2147571584,2147567689,3491,3,13,14607
1349853843,5809,993.4099731445312000,38.7747497558593750,567.2551269531250000,4.2608299255371090,55.7747383117675800,55,99,101,78,82,15539,0,0,0,0,2147124342,2147781504,2147571922,2147567323,55,3,13,6881
1349857443,5809,996.0499877929688000,38.4878883361816400,566.1295776367188000,4.2957730293273930,55.8038291931152340,56,98,101,77,83,15541,0,0,0,0,2147123702,2147777883,2147574756,2147570294,3514,3,13,2786
1349861043,5810,999.7500000000000000,38.2202110290527340,565.3892211914062000,4.3187541961669920,55.8371582031250000,55,100,100,78,83,15541,0,0,0,0,2147121243,2147774774,2147571675,2147570276,3420,3,13,32223
1349864643,5810,998.0000000000000000,37.4270210266113300,564.9531250000000000,4.3322892189025880,55.9542007446289060,56,98,100,78,83,15537,0,0,0,0,2147122560,2147776576,2147568338,2147570368,112,3,13,610
1349868243,5812,1003.9799804687500000,36.9362106323242200,564.4252929687500000,4.3486671447753910,56.0247001647949200,55,97,100,78,84,15534,0,0,0,0,2147124022,2147770669,2147570002,2147566089,53,3,13,31070
1349871843,5808,1004.4600219726562000,36.5394515991210940,564.3344116210938000,4.3514881134033200,56.0858306884765600,56,98,100,78,82,15538,0,0,0,0,2147124955,2147776914,2147566573,2147571675,423,3,13,31140
1349875443,5809,1002.3900146484375000,36.3148117065429700,564.4011230468750000,4.3494172096252440,56.1163482666015600,55,100,101,78,83,15536,0,0,0,0,2147125339,2147774162,2147573814,2147567661,68,3,13,19434
1349879043,5810,1002.3200073242188000,36.8167610168457000,564.3906860351562000,4.3497390747070310,56.0438499450683600,56,100,99,80,82,15525,0,0,0,0,2147123986,2147775277,2147567771,2147569325,159,3,13,57748
1349882643,5812,996.6099853515625000,36.7766304016113300,564.9816284179688000,4.3314061164855960,56.0517883300781250,55,99,99,78,81,15536,0,0,0,0,2147123657,2147779958,2147572013,2147569810,3557,3,13,49238
1349886243,5811,993.3400268554688000,37.0584106445312500,565.9251708984375000,4.3021178245544430,56.0233306884765600,55,100,101,76,82,15531,0,0,0,0,2147123218,2147773010,2147566500,2147570349,3479,3,13,3604
1349889843,5809,993.4000244140625000,37.8877105712890600,566.1580200195312000,4.2948908805847170,55.8962783813476560,54,98,100,78,82,15528,0,0,0,0,2147123373,2147774354,2147568000,2147567945,3216,3,13,52372
1349893443,5811,999.8699951171875000,37.5790901184082000,566.8963012695312000,4.2719688415527340,55.9476814270019500,55,99,101,78,82,15530,0,0,0,0,2147123236,2147774253,2147574829,2147571739,3547,3,13,49832
1349897043,5810,1004.3200073242188000,37.9599914550781250,565.2177734375000000,4.3240737915039060,55.8720512390136700,55,97,101,77,83,15527,0,0,0,0,2147124525,2147776841,2147568347,2147566272,5,3,13,30969
1349897156,5810,1004.0499877929688000,37.9961814880371100,565.0883178710938000,4.3280940055847170,55.8712501525878900,54,98,101,80,83,15527,0,0,0,0,2147122971,2147774427,2147576484,2147569280,86,3,13,19978
